User: anonymous   Login
Location: Muenchen
(48.1800°N, 11.5800°E)
Time: 22:43:48
(UTC+02:00)
Language:

ISS - Orbit

View from above orbital plane
View from above orbital plane
View from above satellite
View from above satellite

Ground track
Ground track

The orbit data is extracted from the following two-line orbital elements,

1 25544U 98067A   16242.47679482  .00016717  00000-0  10270-3 0  9054
2 25544  51.6409  52.3292 0003209 270.3205  89.7580 15.54308455 16388
Epoch (UTC): 29 August 2016 11:26:35
Eccentricity: 0.0003209
inclination: 51.6409°
perigee height: 402 km
apogee height: 406 km
right ascension of ascending node: 52.3292°
argument of perigee: 270.3205°
revolutions per day: 15.54308455
mean anomaly at epoch: 89.7580°
orbit number at epoch: 1638

The dashed part of the orbit path shows where the satellite is in the earth's shadow,  

DLR